Home > Weather > Ehingen (Donau) > Past weeks

Flag for Germany Weather for the Past 2 Weeks in Ehingen (Donau), Baden-Württemberg, Germany

Now
43 °F

Fog.


Feels Like: 40 °F
Forecast: 35 / 52 °F
Wind: 5 mph from Southwest

Location: Laupheim Airport

Current Time: May 3, 2016 at 7:43:59 AM

Latest Report: May 3, 2016 at 6:20 AM


Visibility: 2 mi

Pressure: 30.09 "Hg (28.28 "Hg at 508m altitude)

Humidity: 93%

Dew Point: 41 °F

Location of Ehingen (Donau)Location

Historic Weather in Ehingen (Donau) — Graph

°F

Ehingen (Donau) Temperature Yesterday

Maximum temperature yesterday: 61 °F (at 4:20 PM)
Minimum temperature yesterday: 43 °F (at 5:20 AM)
Average temperature yesterday: 52 °F

High & Low Weather Summary for the Past Weeks

 TemperatureHumidityPressure
High64 °F (Apr 21, 3:20 PM)100% (Apr 18, 6:20 AM)30.36 "Hg (Apr 18, 6:20 AM)
Low28 °F (Apr 28, 4:20 AM)33% (Apr 29, 7:20 PM)29.59 "Hg (Apr 26, 7:20 AM)
Average44 °F72%29.99 "Hg
* Reported Apr 18 6:20 AM — May 3 6:20 AM, Ehingen (Donau), Weather by CustomWeather, © 2016

Note: Actual official high and low records may vary slightly from our data, if they occured in-between our weather recording intervals... More about our weather records

Advertising

Ehingen (Donau) Weather History for the Previous 24 Hours

Scroll right to see more
 ConditionsComfort  
Time TempWeatherWind HumidityBarometerVisibility
6:20 AM
Tue, May 3
43 °FFog.5 mph93%30.09 "Hg2 mi
5:20 AM43 °FFog.7 mph93%30.09 "Hg2 mi
4:20 AM45 °FFog.8 mph93%30.09 "Hg2 mi
3:20 AM45 °FFog.5 mph87%30.09 "Hg2 mi
2:20 AM45 °FFog.6 mph93%30.09 "Hg3 mi
1:20 AM46 °FPassing clouds.6 mph87%30.12 "Hg4 mi
12:20 AM48 °FPassing clouds.5 mph82%30.12 "HgN/A
11:20 PM
Mon, May 2
48 °FPassing clouds.5 mph82%30.12 "HgN/A
10:20 PM50 °FPassing clouds.5 mph71%30.12 "HgN/A
9:20 PM52 °FPassing clouds.3 mph58%30.12 "HgN/A
8:20 PM55 °FPassing clouds.2 mph44%30.09 "HgN/A
7:20 PM59 °FPassing clouds.3 mph39%30.09 "HgN/A
6:20 PM61 °FPassing clouds.6 mph36%30.09 "HgN/A
5:20 PM61 °FPassing clouds.7 mph34%30.12 "HgN/A
4:20 PM61 °FPassing clouds.3 mph34%30.12 "HgN/A
3:20 PM59 °FPassing clouds.8 mph39%30.12 "HgN/A
2:20 PM59 °FPassing clouds.3 mph45%30.15 "HgN/A
1:20 PM57 °FPassing clouds.8 mph51%30.15 "HgN/A
12:20 PM55 °FPassing clouds.6 mph55%30.15 "HgN/A
11:20 AM54 °FPassing clouds.5 mph63%30.18 "HgN/A
10:20 AM50 °FPassing clouds.5 mph67%30.18 "HgN/A
9:20 AM48 °FCool.8 mph71%30.18 "HgN/A
8:20 AM46 °FCool.5 mph76%30.18 "HgN/A
Weather by CustomWeather, © 2016

See weather overviewHow to use our weather pages